Regional Weather Roundup
Issued by NWS

Home | Current Version | Previous Version | Text Only | Print | Product List | Glossary On
Versions: 1 2 3 4 5 6 7 8 9 10 11 12 13 14 15 16 17 18 19 20 21 22 23 24 25 26 27 28 29 30 31 32 33 34 35 36 37 38 39 40 41 42 43 44 45 46 47 48 49 50
000
ASUS45 KSLC 211110
RWRUT

UTAH REGIONAL WEATHER ROUNDUP
NATIONAL WEATHER SERVICE SALT LAKE CITY UT
500 AM MDT THU AUG 21 2014

UTZ001>011-023>025-211200-

NORTHERN UTAH

CITY           SKY/WX    TMP DP  RH WIND       PRES   REMARKS
HILL AFB       CLOUDY    61  52  72 E15       30.04F
LOGAN          CLOUDY    61  55  81 W5        30.04F
OGDEN          CLOUDY    63  54  72 E3        30.02F
PROVO AIRPORT  MOCLDY    59  52  77 E5        30.08R
SALT LAKE CITY CLOUDY    67  50  54 SE8       30.01R
VERNAL         CLEAR     54  49  83 N6        30.14R
WENDOVER       CLOUDY    70  48  46 CALM      29.99R
HEBER CITY     MOCLDY    54  52  94 CALM      30.14S
WEST JORDAN    MOCLDY    66  57  72 S14       30.04S

$$

UTZ012>022-026-027-211200-

SOUTHERN UTAH

CITY           SKY/WX    TMP DP  RH WIND       PRES   REMARKS
BRYCE CANYON   PTCLDY    42  39  89 W5        30.29S
CEDAR CITY     PTCLDY    54  46  74 N5        30.15R
MILFORD        PTCLDY    60  47  61 SW13      30.10R
MOAB/CYNLANDS  CLEAR     58  55  90 W3        30.08R
PRICE          CLEAR     54  47  77 N8        30.15R
ST GEORGE      PTSUNNY   66  55  68 CALM      30.02S
KANAB            N/A     57  48  72 NW12      30.16F

$$

REGIONAL REPORTS     COLORADO/ARIZONA

CITY           SKY/WX    TMP DP  RH WIND       PRES   REMARKS
CRAIG, CO      LGT RAIN  55  52  89 N5        30.20F
GRAND JUNCTION PTCLDY    57  50  77 E5        30.12R
RIFLE          PTCLDY    55  51  86 SE5       30.16R
MONTROSE       CLEAR     55  46  71 S6        30.20R
CORTEZ         CLEAR     50  44  80 E5        30.18S
PAGE, AZ       MOCLDY    66  49  54 CALM      30.08S
GRAND CANYON     N/A    N/A N/A N/A MISG        N/A
KINGMAN        CLOUDY    68  56  65 E5        30.02S
FLAGSTAFF      PTCLDY    49  45  86 CALM      30.27S

$$

REGIONAL REPORTS    NEVADA/IDAHO/WYOMING

CITY           SKY/WX    TMP DP  RH WIND       PRES   REMARKS
LAS VEGAS, NV  MOCLDY    76  45  33 S10       29.89R
ELY            PTCLDY    57  39  51 SW12      30.15R
ELKO           MOCLDY    67  44  43 E8        30.02R
POCATELLO, ID  LGT RAIN  57  56  96 NE3       30.06S
BURLEY         LGT RAIN  58  54  86 SE7       30.01F
EVANSTON, WY   CLOUDY    51  48  89 S8        30.17F
ROCK SPRINGS   MOCLDY    50  44  80 VRB3      30.17R

$$



USA.gov is the U.S. government's official web portal to all federal, state and local government web resources and services.